N2UGS-WX Weather Reports


time (UTC)temp
C
wind
direction
speed
KPH
gust
KPH
rain 1hr
cm
rain 24hr
cm
rain mn
cm
humidity
%
barometer
mb
20260504014402 10 223 8.0 17.7 0.00 0.00 0.00 59 1009.8
20260504013002 10 245 8.0 9.7 0.00 0.00 0.00 60 1009.8
20260504010501 12 177 16.1 17.7 0.00 0.00 0.00 49 1009.8
20260504005004 12 271 12.9 29.0 0.00 0.00 0.00 50 1009.8
20260504003502 11 226 11.3 22.5 0.00 0.00 0.00 51 1009.8
20260504002002 11 279 9.7 20.9 0.00 0.00 0.00 53 1009.8
20260504001001 11 264 4.8 20.9 0.00 0.00 0.00 56 1009.8
20260503235502 11 315 9.7 12.9 0.00 0.00 0.00 56 1009.8
20260503234002 11 274 14.5 25.7 0.00 0.00 0.00 55 1010.2
20260503232502 11 290 8.0 12.9 0.00 0.00 0.00 57 1010.2
20260503231002 11 248 9.7 19.3 0.00 0.00 0.00 58 1010.2
20260503225502 11 224 6.4 16.1 0.00 0.00 0.00 58 1010.2
20260503224402 11 239 8.0 22.5 0.00 0.00 0.00 56 1010.2
20260503223003 11 275 16.1 27.4 0.00 0.00 0.00 57 1010.2
20260503221503 11 303 9.7 24.1 0.00 0.00 0.00 59 1010.5
20260503220002 11 263 9.7 24.1 0.00 0.00 0.00 57 1010.2
20260503214502 11 262 16.1 27.4 0.00 0.00 0.00 57 1010.2
20260503213005 11 217 6.4 22.5 0.00 0.00 0.00 58 1009.8
20260503211503 11 251 14.5 17.7 0.00 0.00 0.00 57 1009.8
20260503210002 11 253 11.3 20.9 0.00 0.00 0.00 60 1010.2
20260503204902 11 255 9.7 16.1 0.00 0.00 0.00 60 1010.2
20260503203501 11 273 11.3 20.9 0.00 0.00 0.00 57 1010.2
20260503202402 11 238 22.5 29.0 0.00 0.00 0.00 56 1010.2
20260503200902 12 187 16.1 20.9 0.00 0.00 0.00 55 1010.5
20260503195402 12 270 11.3 24.1 0.00 0.00 0.00 53 1010.5
20260503193902 13 270 12.9 25.7 0.00 0.00 0.00 50 1010.8
20260503192402 12 282 27.4 27.4 0.00 0.00 0.00 50 1011.2
20260503190902 12 216 16.1 30.6 0.00 0.00 0.00 49 1011.5
20260503185502 12 220 11.3 27.4 0.00 0.00 0.00 48 1011.5
20260503184002 13 242 9.7 22.5 0.00 0.00 0.00 47 1011.5
20260503182502 12 215 12.9 27.4 0.00 0.00 0.00 42 1011.9
20260503180902 12 287 16.1 25.7 0.00 0.00 0.00 39 1012.2
20260503175501 12 256 20.9 20.9 0.00 0.00 0.00 39 1012.2
20260503174001 11 305 16.1 24.1 0.00 0.00 0.00 48 1012.9
20260503172502 10 277 9.7 22.5 0.00 0.00 0.00 57 1012.9
20260503171402 10 233 6.4 22.5 0.00 0.00 0.00 57 1013.2
20260503150501 11 277 19.3 19.3 0.00 0.00 0.00 55 1013.9
20260503130502 7 244 11.3 20.9 0.00 0.00 0.00 74 1014.2
20260503080404 0 245 0.0 0.0 0.00 0.00 0.00 90 1014.6
20260503072402 0 322 0.0 0.0 0.00 0.00 0.00 90 1014.6
20260503071002 0 282 0.0 1.6 0.00 0.00 0.00 90 1014.6
20260503054503 0 232 0.0 0.0 0.00 0.00 0.00 86 1014.9
20260503053502 0 237 0.0 0.0 0.00 0.00 0.00 85 1014.9
20260503052002 1 268 0.0 0.0 0.00 0.00 0.00 83 1014.9
20260503050502 1 166 0.0 0.0 0.00 0.00 0.00 81 1015.2
20260503045003 1 274 0.0 0.0 0.00 0.00 0.00 79 1015.2
20260503044001 2 225 0.0 0.0 0.00 0.00 0.00 78 1015.2
20260503042902 2 222 0.0 0.0 0.00 0.00 0.00 77 1015.2
20260503040003 3 279 0.0 0.0 0.00 0.00 0.00 74 1015.6
20260503035402 3 264 0.0 0.0 0.00 0.00 0.00 74 1015.2
20260503034003 4 216 0.0 0.0 0.00 0.00 0.00 73 1015.6
20260503032502 4 233 0.0 0.0 0.00 0.00 0.00 73 1015.6
20260503025502 4 286 0.0 0.0 0.00 0.00 0.00 72 1015.6
20260503023902 5 245 0.0 3.2 0.00 0.00 0.00 72 1015.6
20260503022402 5 228 0.0 3.2 0.00 0.00 0.00 71 1015.9
20260503020902 5 251 3.2 6.4 0.00 0.00 0.00 71 1015.9
20260503015401 5 258 3.2 6.4 0.00 0.00 0.00 71 1015.9